Weather Roundup
Issued by NWS Springfield, MO

Home | Current Version | Previous Version | Text Only | Print | Product List | Glossary On
Versions: 1 2 3 4 5 6 7 8 9 10 11 12 13 14 15 16 17 18 19 20 21 22 23 24 25 26 27 28 29 30 31 32 33 34 35 36 37 38 39 40 41 42 43 44 45 46 47 48 49 50
000
NZUS99 KSGF 201207
HRRSGF

HOURLY WEATHER
NATIONAL WEATHER SERVICE SPRINGFIELD MO
700 AM CDT MON OCT 20 2014

......SGF CWA......

CITY           SKY/WX    TMP DP  RH WIND       PRES   REMARKS
SPRINGFIELD    CLOUDY    56  51  84 CALM      30.04R
6HR MIN TEMP:  53; 6HR MAX TEMP:  56;

JOPLIN         CLOUDY    59  52  77 SW8       30.05R
6HR MIN TEMP:  57; 6HR MAX TEMP:  59; 6HR PCP:  0.01;

WEST PLAINS    CLOUDY    53  48  83 W7        30.05S
6HR MIN TEMP:  51; 6HR MAX TEMP:  54; 6HR PCP: TRACE;

ROLLA          MOCLDY    50  46  86 SW8       29.98F
6HR MIN TEMP:  49; 6HR MAX TEMP:  52;

OSAGE BEACH    CLEAR     55  48  76 SW5       30.01R
BRANSON        CLOUDY    55  50  82 W3        30.07R

......SURROUNDING SGF CWA......

CITY           SKY/WX    TMP DP  RH WIND       PRES   REMARKS
CHANUTE        CLOUDY    58  54  86 S6        30.03R
PARSONS        MOCLDY    58  55  90 MISG      30.05R
COFFEYVILLE    CLOUDY    58  54  86 S6        30.04R
EMPORIA        FOG       50  50 100 CALM      30.04R VSB 3/4
GROVE OK       CLOUDY    57  57 100 CALM      30.07R
ROGERS AR      CLOUDY    54  52  93 S3        30.08S
SILOAM SPRINGS CLOUDY    55  48  76 CALM      30.09R
HARRISON AR    LGT RAIN  55  54  96 W6        30.06S
NEAR YELLVILLE CLOUDY    52  46  82 CALM      30.06S

......KANSAS AND MISSOURI......

CITY           SKY/WX    TMP DP  RH WIND       PRES   REMARKS
KANSAS CTY INT CLEAR     50  49  96 SW8       30.00R
DOWNTOWN KC    CLEAR     52  50  93 CALM      30.00R
COLUMBIA       CLEAR     51  49  92 W5        29.99R
SEDALIA        CLEAR     54  51  90 SW7       30.00S
ST JOSEPH      FOG       40  40 100 CALM      30.01R VSB 1/2
ST LOUIS       PTCLDY    55  48  77 W7        29.97R
SPIRIT OF STL  CLEAR     54  48  80 W7        29.96S
KIRKSVILLE     CLEAR     50  48  93 NW7       29.97R
WICHITA        PTCLDY    55  52  89 SE3       30.03R
TOPEKA         FOG       47  46  97 CALM      30.02R VSB 1/4
OLATHE         CLEAR     53  52  96 W5        30.00R

......TENNESSEE......

CITY           SKY/WX    TMP DP  RH WIND       PRES   REMARKS
MEMPHIS        PTCLDY    49  46  90 CALM      30.08R
NASHVILLE      PTCLDY    44  42  93 CALM      30.10R

......ARKANSAS.......

CITY           SKY/WX    TMP DP  RH WIND       PRES   REMARKS
FAYETTEVILLE   CLOUDY    54  53  97 CALM      30.09R
FT SMITH       CLOUDY    55  52  89 NE3       30.08R
LITTLE ROCK    PTCLDY    50  45  83 SW3       30.09R

......OKLAHOMA.......

CITY           SKY/WX    TMP DP  RH WIND       PRES   REMARKS
TULSA          TSTM      57  54  89 NE5       30.05R FOG
PONCA CITY     CLEAR     57  53  86 CALM      30.02S
MCALESTER      PTCLDY    54  50  86 S5        30.07R
OKLAHOMA CITY  PTCLDY    56  53  90 S6        30.05R

......IOWA............

CITY           SKY/WX    TMP DP  RH WIND       PRES   REMARKS
DES MOINES     CLEAR     48  42  80 NW7       30.00R
QUAD CITIES    CLEAR     50  43  77 NW15      29.89R

......ILLINOIS........

CITY           SKY/WX    TMP DP  RH WIND       PRES   REMARKS
QUINCY         CLEAR     52  48  86 W8        29.94R
CHICAGO        PTCLDY    47  43  86 W8        29.80S




USA.gov is the U.S. government's official web portal to all federal, state and local government web resources and services.